GW1127 Weather Reports


time (UTC)temp
F
wind
direction
speed
knots
gust
knots
rain 1hr
in
rain 24hr
in
rain mn
in
humidity
%
barometer
mb
20260503045936 42 0.0 0.0 0.00 0.17 0.00 95 1010.4
20260503044937 43 0.0 0.0 0.00 0.17 0.00 95 1010.4
20260503043920 43 0.0 0.0 0.00 0.17 0.00 95 1010.5
20260503042920 44 0.0 0.0 0.00 0.17 0.00 95 1010.5
20260503041917 44 0.0 0.0 0.00 0.17 0.00 95 1010.5
20260503040937 44 20 0.9 1.7 0.00 0.17 0.00 95 1010.3
20260503035917 44 0.0 0.0 0.00 0.17 0.17 95 1010.3
20260503034937 45 0.0 0.0 0.00 0.17 0.17 95 1010.2
20260503033938 45 17 0.0 1.7 0.00 0.17 0.17 95 1010.3
20260503032918 45 0.0 0.0 0.00 0.17 0.17 95 1010.2
20260503031918 45 0.0 0.0 0.00 0.17 0.17 95 1010.0
20260503030918 46 0.0 0.0 0.00 0.17 0.17 95 1009.9
20260503025939 46 0.0 0.0 0.00 0.17 0.17 94 1009.8
20260503024918 46 25 0.0 1.7 0.00 0.17 0.17 94 1009.8
20260503023916 47 0.0 0.0 0.00 0.17 0.17 94 1009.6
20260503022919 47 0.0 0.0 0.00 0.17 0.17 94 1009.5
20260503021919 47 0.0 0.0 0.00 0.17 0.17 94 1009.4
20260503020919 48 25 0.0 0.9 0.00 0.17 0.17 94 1009.6
20260503015916 48 33 0.0 0.9 0.00 0.17 0.17 94 1009.3
20260503014916 48 0.0 0.0 0.00 0.17 0.17 94 1009.2
20260503013917 48 0.0 0.0 0.00 0.17 0.17 93 1009.2
20260503012920 48 0.0 0.0 0.00 0.17 0.17 93 1009.2
20260503011920 49 0.0 0.0 0.00 0.17 0.17 92 1009.0
20260503010917 49 0.0 0.0 0.00 0.17 0.17 92 1008.8
20260503005917 50 0.0 0.0 0.00 0.17 0.17 92 1008.7
20260503004957 50 0.0 0.0 0.00 0.17 0.17 91 1008.5
20260503003918 51 0.0 0.0 0.00 0.17 0.17 89 1008.4
20260503002938 52 0.0 0.0 0.00 0.17 0.17 88 1008.3
20260503001918 53 0.0 0.0 0.00 0.17 0.17 86 1008.1
20260503000918 55 0.0 0.0 0.00 0.17 0.17 84 1007.8
20260502235938 56 0.0 0.0 0.00 0.18 0.17 82 1007.8
20260502234918 57 0.0 0.0 0.00 0.20 0.17 81 1007.6
20260502233919 58 0.0 0.0 0.00 0.33 0.17 76 1007.4
20260502232919 58 0.0 0.0 0.00 0.36 0.17 73 1007.5
20260502231916 58 0.0 0.0 0.00 0.36 0.17 76 1007.5
20260502230939 58 0.0 0.0 0.00 0.36 0.17 76 1007.4
20260502225935 57 0.0 0.0 0.00 0.36 0.17 80 1007.3
20260502224919 57 353 0.0 0.9 0.00 0.36 0.17 82 1007.3
20260502223917 57 0.0 0.0 0.00 0.36 0.17 82 1007.3
20260502222917 57 0.0 0.0 0.00 0.36 0.17 81 1007.2
20260502221937 57 0.0 0.0 0.00 0.36 0.17 82 1007.2
20260502220917 57 0.0 0.0 0.00 0.36 0.17 81 1007.1
20260502215920 57 12 0.0 0.9 0.00 0.36 0.17 79 1007.0
20260502214958 57 290 0.0 1.7 0.00 0.36 0.17 79 1006.9
20260502213918 58 335 0.0 0.9 0.00 0.36 0.17 79 1006.8
20260502212919 58 178 0.9 1.7 0.00 0.36 0.17 77 1006.9
20260502211918 58 0.0 0.0 0.00 0.36 0.17 77 1006.9
20260502210918 58 352 1.7 2.6 0.00 0.36 0.17 77 1007.0
20260502205918 58 353 0.9 1.7 0.00 0.36 0.17 79 1007.0
20260502204918 57 333 0.0 0.9 0.00 0.36 0.17 79 1007.0
20260502203939 57 0.0 0.0 0.00 0.36 0.17 78 1007.0
20260502202940 57 0.0 0.0 0.00 0.36 0.17 76 1007.1
20260502201917 58 0.0 0.0 0.00 0.36 0.17 78 1007.0
20260502200916 58 158 0.9 2.6 0.00 0.36 0.17 76 1006.9
20260502195917 57 168 0.0 1.7 0.00 0.37 0.17 77 1007.0
20260502194917 58 180 1.7 1.7 0.00 0.37 0.17 77 1007.2
20260502193920 58 0.0 0.0 0.00 0.37 0.17 76 1007.3
20260502192921 57 166 1.7 3.5 0.00 0.37 0.17 78 1007.5
20260502191917 57 177 0.9 2.6 0.00 0.37 0.17 79 1007.5
20260502190918 58 170 0.9 1.7 0.00 0.37 0.17 78 1007.5
20260502185917 57 342 0.0 0.9 0.00 0.37 0.17 80 1007.7
20260502184937 57 150 0.9 2.6 0.00 0.37 0.17 79 1007.8
20260502183918 57 8 0.9 2.6 0.00 0.37 0.17 81 1007.9
20260502182918 56 351 0.0 0.9 0.00 0.37 0.17 83 1008.0
20260502181918 55 163 0.9 2.6 0.00 0.37 0.17 83 1008.1
20260502180918 55 273 0.9 1.7 0.00 0.37 0.17 83 1008.3
20260502163920 54 356 1.7 3.5 0.00 0.37 0.17 90 1009.2
20260502162940 53 351 0.9 1.7 0.00 0.37 0.17 88 1009.5
20260502162000 53 348 2.6 3.5 0.00 0.37 0.17 88 1009.7
20260502160921 53 267 0.9 0.9 0.00 0.37 0.17 88 1009.9
20260502151921 54 0.0 0.0 0.02 0.36 0.16 90 1009.5
20260502150922 54 322 0.9 1.7 0.02 0.36 0.16 90 1009.5
20260502122917 52 320 0.9 2.6 0.06 0.31 0.11 90 1008.5
20260502121916 52 333 0.9 1.7 0.06 0.31 0.11 90 1008.2
20260502120919 52 268 0.0 1.7 0.06 0.30 0.11 90 1008.3
20260502115920 52 9 0.9 1.7 0.09 0.30 0.10 89 1008.3
20260502114921 52 28 0.0 0.9 0.09 0.30 0.10 89 1008.4
20260502113917 52 23 0.0 1.7 0.05 0.26 0.06 88 1008.4
20260502112937 52 10 0.9 2.6 0.04 0.25 0.05 88 1008.3
20260502111917 52 0.0 0.0 0.05 0.25 0.05 88 1008.4
20260502110957 53 338 0.0 0.9 0.05 0.24 0.05 87 1008.5
20260502105918 53 338 0.0 0.9 0.02 0.21 0.02 86 1008.4
20260502104918 54 3 0.9 1.7 0.01 0.21 0.01 84 1008.4
20260502103918 54 355 0.9 1.7 0.01 0.21 0.01 83 1008.5
20260502102918 54 343 0.9 1.7 0.01 0.21 0.01 83 1008.6
20260502101919 54 25 0.9 1.7 0.00 0.20 0.00 85 1008.6
20260502100916 53 314 0.0 0.9 0.00 0.20 0.00 86 1008.7
20260502090916 52 0.0 0.0 0.00 0.20 0.00 92 1008.6
20260502070919 52 19 0.9 1.7 0.00 0.20 0.00 92 1007.7
20260502065918 52 30 0.0 0.9 0.00 0.20 0.00 92 1007.7
20260502064916 52 34 0.0 0.9 0.00 0.20 0.00 92 1007.6
20260502063919 52 0.0 0.0 0.00 0.20 0.00 92 1007.7
20260502062916 52 0.0 0.0 0.00 0.20 0.00 91 1007.7
20260502061919 52 0.0 0.0 0.00 0.20 0.00 91 1007.8
20260502060919 52 0.0 0.0 0.00 0.20 0.00 91 1007.9
20260502055920 52 0.0 0.0 0.00 0.20 0.00 91 1007.8
20260502054917 52 27 0.0 0.0 0.00 0.20 0.00 91 1007.9
20260502053937 52 0.0 0.0 0.00 0.20 0.00 91 1008.0
20260502052917 52 0.0 0.0 0.00 0.20 0.00 91 1008.0
20260502051957 52 0.0 0.0 0.00 0.20 0.00 91 1008.1
20260502050937 52 0.0 0.0 0.00 0.20 0.00 91 1008.3